Regional Weather Roundup
Issued by NWS

Home | Current Version | Previous Version | Text Only | Print | Product List | Glossary On
Versions: 1 2 3 4 5 6 7 8 9 10 11 12 13 14 15 16 17 18 19 20 21 22 23 24 25 26 27 28 29 30 31 32 33 34 35 36 37 38 39 40 41 42 43 44 45 46 47 48 49 50
000
ASUS45 KBOU 130510
RWRCO

WEATHER ROUNDUP FOR COLORADO
NATIONAL WEATHER SERVICE DENVER/BOULDER CO
1100 PM MDT WED AUG 12 2020

NOTE: "FAIR" INDICATES FEW OR NO CLOUDS BELOW 12000 FEET WITH NO
SIGNIFICANT WEATHER AND/OR OBSTRUCTIONS TO VISIBILITY.

COZ001>005-013-030-031-130600-
...NORTHWEST COLORADO...

CITY           SKY/WX    TMP DP  RH WIND       PRES   REMARKS
CRAIG          FAIR      58  37  45 S6        30.19R
HAYDEN         FAIR      67  32  27 VRB3      30.22S
MEEKER         FAIR      58  18  21 E5        30.20R
RANGELY        FAIR      64  26  23 CALM      30.10S
RABBIT EARS PA FAIR      55  23  28 NW5       30.54S
STEAMBOAT SPGS FAIR      67  31  26 W7        30.24R
WALDEN         NOT AVBL
$$

COZ006>008-011-130600-
...WEST CENTRAL VALLEYS...

CITY           SKY/WX    TMP DP  RH WIND       PRES   REMARKS
GRAND JUNCTION FAIR      73  14  10 E8        30.06R
MONTROSE       FAIR      67  26  21 E10       30.19R
EAGLE          FAIR      61  24  24 E8        30.25S
RIFLE          FAIR      65  27  23 CALM      30.14R
DELTA          FAIR      73  21  14 NE9       30.13R
NUCLA          NOT AVBL
$$

COZ017>023-064>068-130600-
...SOUTHWEST COLORADO...

CITY           SKY/WX    TMP DP  RH WIND       PRES   REMARKS
DURANGO        FAIR      63  25  23 N5        30.27S
CORTEZ         FAIR      61  25  25 NE7       30.21S
PAGOSA SPRINGS FAIR      59  23  25 CALM      30.36S
TELLURIDE      FAIR      59  21  23 S7        30.50R
WOLF CREEK PAS FAIR      50  18  27 SW9       30.74S
$$

COZ009-010-012-014-032>034-037-058>063-130600-
...CENTRAL COLORADO...

CITY           SKY/WX    TMP DP  RH WIND       PRES   REMARKS
ASPEN          FAIR      59  22  24 S10       30.34R
BUENA VISTA    FAIR      62  12  14 NW9       30.35S
COPPER MTN     FAIR      55  10  16 W8G16     30.68S
BERTHOUD PASS  FAIR      46  32  57 W20G31    30.70F
COTTONWOOD PAS FAIR      63   5  10 NW5       30.51R
GUNNISON       FAIR      57  26  30 CALM      30.35R
GRANBY         NOT AVBL
KREMMLING      FAIR      59  28  31 CALM      30.32R
LEADVILLE      FAIR      50  18  28 E8        30.51R
MONARCH PASS   FAIR      54  14  20 W17       30.78S
SALIDA         FAIR      63  24  22 W7        30.39R
SUNLIGHT       NOT AVBL
WILKERSON PASS FAIR      55  19  24 N6        30.65S
$$

COZ069>075-130600-
...SAN LUIS VALLEY/SANGRE DE CRISTO MOUNTAINS...

CITY           SKY/WX    TMP DP  RH WIND       PRES   REMARKS
ALAMOSA        FAIR      58  27  30 SW3       30.31S
DEL NORTE      FAIR      64  24  21 SW8       30.37R
LA VETA PASS   NOT AVBL
SAGUACHE       FAIR      63  21  20 NW12      30.35R
$$

COZ035-036-038>040-130600-
...NORTHERN COLORADO FRONT RANGE...

CITY           SKY/WX    TMP DP  RH WIND       PRES   REMARKS
DENVER INTL AP MOCLDY    73  38  27 E6        30.12R
AURORA         PTCLDY    72  35  26 E9        30.14R
WATKINS        NOT AVBL
ERIE           NOT AVBL
BOULDER        NOT AVBL
CENTENNIAL     FAIR      73  37  27 N5        30.16R
BROOMFIELD     NOT AVBL
FORT COLLINS   FAIR      71  47  42 SW5       30.10R
LONGMONT       FAIR      67  42  40 CALM      30.12R
$$

COZ041-046-047-076>085-087-088-130600-
...PIKES PEAK/PALMER DIVIDE AND SOUTHERN FOOTHILLS...

CITY           SKY/WX    TMP DP  RH WIND       PRES   REMARKS
COLO. SPRINGS  FAIR      74  37  26 E7        30.20R
A. F. ACADEMY  FAIR      60  36  40 N10       30.20R
SCHRIEVER AFB  NOT AVBL
CHEYENNE MTN   FAIR      73  45  36 S8        30.21R
ELLICOTT       FAIR      71  53  51 SE12      30.18R
FALCON         FAIR      66  37  34 CALM      30.27R
FORT CARSON    FAIR      73  38  27 NE3       30.15R
LIMON          LGT RAIN  72  57  59 SE8       30.13R
MONUMENT HILL  NOT AVBL
CANON CITY     NOT AVBL
WALSENBURG     NOT AVBL
TRINIDAD       FAIR      75  30  19 W12       30.11R
$$

COZ042>045-048>051-090-091-130600-
...NORTHEAST COLORADO...

CITY           SKY/WX    TMP DP  RH WIND       PRES   REMARKS
GREELEY        FAIR      70  44  39 E3        30.06R
AKRON          FAIR      70  63  78 NE10      30.10R
BURLINGTON     FAIR      70  64  81 S14       30.06R
WRAY           FAIR      72  64  78 E9        30.05S
YUMA           NOT AVBL
STERLING       FAIR      70  63  78 SE13G18   30.03F
HOLYOKE        NOT AVBL
FORT MORGAN    FAIR      72  58  62 E17G23    30.07F
$$

COZ086-089-092>099-130600-
...SOUTHEAST COLORADO...

CITY           SKY/WX    TMP DP  RH WIND       PRES   REMARKS
PUEBLO         FAIR      77  52  41 N8        30.03R
LA JUNTA       FAIR      78  57  48 E13       30.01S
LAMAR          FAIR      76  66  71 SE18      29.98F
SPRINGFIELD      N/A     71  65  81 SE12      30.05R
$$



USA.gov is the U.S. government's official web portal to all federal, state and local government web resources and services.